GEFSSE_con_prob3kmehi_072.txt.gz
EHI
44 38 34 25 12 8 7 7 6 6 6 6 6 6 6 6 6 6 6 6 6 6 6 6 6 6 6 6 6 6 6 6 6 6 6 6 6 6 7 7 7 6 6
41 36 32 24 12 8 8 7 7 7 7 8 7 7 6 6 6 6 6 6 6 6 6 6 6 6 6 6 6 6 6 6 6 6 6 6 6 6 7 7 7 6 6
29 26 25 21 13 9 8 8 7 8 9 11 10 8 7 6 6 6 6 6 6 6 6 6 6 6 6 6 6 6 6 6 6 6 6 6 6 6 7 7 7 6 6
19 18 19 18 13 9 8 10 12 13 15 16 13 10 8 7 7 6 6 6 6 6 6 6 6 6 6 6 6 6 6 6 7 7 7 6 6 6 6 6 6 6 6
18 16 16 16 12 9 9 13 18 20 21 19 15 13 11 9 7 6 6 6 6 6 6 6 6 6 5 6 6 6 6 7 7 8 7 7 7 7 7 7 6 6 6
19 17 16 15 12 9 10 13 17 20 22 19 16 13 12 9 7 6 6 6 6 6 6 6 6 6 6 5 6 6 6 7 8 8 8 8 10 10 9 7 6 6 6
24 20 16 16 15 12 10 10 12 15 16 15 12 11 10 8 7 6 6 6 6 6 6 6 6 6 6 6 6 6 6 7 7 8 10 13 15 14 11 8 6 6 6
32 25 18 17 17 14 11 10 10 11 11 9 8 8 7 7 7 6 6 6 7 7 7 7 6 6 6 6 6 6 6 7 7 7 13 21 23 19 12 8 6 6 6
39 29 18 14 13 12 11 10 9 8 7 7 6 7 7 7 7 7 7 7 7 8 8 7 6 6 6 6 6 6 6 7 7 7 14 29 34 25 15 9 7 6 6
41 29 17 12 9 10 12 11 9 8 7 6 6 7 7 8 8 8 8 8 8 7 7 7 6 6 6 6 6 6 6 6 6 6 17 36 44 35 21 11 8 6 6
41 30 21 15 12 12 16 17 13 9 8 8 9 10 10 11 12 12 13 14 12 9 8 7 7 7 8 7 7 7 7 6 6 7 23 45 52 43 28 16 10 8 7
37 31 26 25 22 18 20 23 18 15 15 14 18 22 21 20 21 21 22 22 18 13 11 11 11 10 11 12 12 10 8 6 5 9 27 49 56 48 37 25 16 10 8
32 29 33 37 34 29 29 30 27 26 26 26 31 34 32 31 31 31 30 28 23 19 18 18 17 16 16 18 18 14 10 8 7 11 28 48 54 50 45 36 24 14 9
33 36 44 50 48 45 45 43 40 38 36 38 41 40 36 34 34 34 34 31 26 25 26 25 22 18 16 18 19 16 12 12 11 14 27 43 49 49 48 43 32 20 14
44 47 55 60 60 57 53 50 47 43 40 42 43 40 34 32 32 31 31 30 27 28 28 26 21 15 12 14 15 13 12 14 15 16 25 37 45 47 47 43 36 27 20
52 53 56 61 62 57 49 44 40 37 37 39 37 31 26 27 29 26 24 23 22 22 23 21 16 12 10 10 11 10 11 14 15 17 22 30 38 44 43 41 39 34 29
59 59 57 56 56 53 44 36 30 28 30 30 26 20 18 20 21 19 17 15 13 12 12 12 11 9 8 8 9 10 12 14 16 16 18 23 31 36 36 36 37 37 35
69 69 65 58 55 51 42 33 28 27 26 23 17 14 12 12 11 10 10 10 7 5 4 5 6 5 5 5 7 8 9 12 12 13 14 18 23 27 27 27 30 33 32
74 75 73 65 55 46 38 30 27 26 23 18 15 12 8 5 5 4 5 5 4 2 2 2 3 3 2 2 3 3 4 5 6 7 9 12 15 19 20 20 24 27 25
67 68 67 61 50 39 32 28 24 19 16 14 14 11 6 2 1 1 1 2 1 0 1 2 3 2 1 1 0 0 1 1 2 3 6 8 10 11 13 17 24 24 21
54 55 55 51 42 33 27 25 22 16 13 13 12 11 7 3 1 0 0 0 0 0 0 1 1 1 0 0 0 0 0 0 1 2 5 7 8 7 7 12 21 25 23
42 45 46 44 39 30 24 21 19 15 13 13 13 12 10 6 2 1 0 0 0 0 0 0 0 0 0 0 0 0 0 0 0 2 4 6 6 6 6 7 13 19 21
35 37 41 45 43 35 25 17 14 13 12 13 15 16 12 7 3 1 0 0 0 0 0 0 0 0 0 0 0 0 0 0 0 1 3 4 4 4 5 5 6 9 11
30 35 45 55 55 45 32 20 13 11 12 14 17 17 13 8 4 1 0 0 0 0 0 0 0 0 0 0 0 0 0 0 0 0 1 2 3 3 4 4 4 4 5
30 38 54 66 67 56 41 28 18 13 12 14 16 14 11 8 5 3 1 0 0 0 0 0 0 0 0 0 0 0 0 0 0 0 0 1 1 2 3 3 2 3 3
30 39 56 71 72 61 47 35 25 17 13 12 12 10 7 6 6 4 1 0 0 0 0 0 0 0 0 0 0 0 0 0 0 0 0 0 0 1 1 1 1 2 3

GEFSSE_con_prob3kmehi_078.txt.gz
EHI
7 10 22 34 34 28 17 8 4 3 3 3 2 2 1 0 0 0 0 0 0 0 0 0 0 0 0 0 0 0 0 0 0 0 0 0 0 0 0 0 0 0 0
19 19 28 39 40 32 19 8 4 3 3 2 1 1 0 0 0 0 0 0 0 0 0 0 0 0 0 0 0 0 0 0 0 0 0 0 0 0 0 0 0 0 0
44 35 36 47 49 38 21 9 4 3 3 1 0 0 0 0 0 0 0 0 0 0 0 0 0 0 0 0 0 0 0 0 0 0 0 0 0 0 0 0 0 0 0
59 49 46 56 58 44 26 11 5 3 2 1 0 0 0 0 0 0 0 0 0 0 0 0 0 0 0 0 0 0 0 0 0 0 0 0 0 1 1 1 0 0 0
61 57 58 67 65 50 31 15 6 2 1 0 0 0 0 0 0 0 0 0 0 0 0 0 0 0 0 0 0 0 0 0 0 0 0 0 1 2 3 2 1 0 0
61 58 63 70 65 50 33 17 7 1 0 0 0 0 0 0 0 0 0 0 0 0 0 0 0 0 0 0 0 0 0 0 0 0 0 0 1 4 5 4 1 0 0
56 52 55 61 55 41 28 17 8 4 2 1 0 0 0 0 0 0 0 0 0 0 0 0 0 0 0 0 0 0 0 0 0 0 0 0 1 5 7 5 2 0 0
45 39 37 41 37 28 21 15 10 6 4 2 1 0 0 0 0 0 0 0 0 0 0 0 0 0 0 0 1 1 1 1 0 0 0 0 2 6 8 6 3 1 0
29 25 21 20 20 17 14 11 8 5 4 3 2 0 0 0 0 0 0 0 0 0 0 0 0 0 0 0 1 2 3 3 1 0 0 0 2 6 8 6 4 2 1
14 13 11 9 10 10 8 6 4 3 2 2 1 1 0 0 0 0 0 0 0 0 0 0 0 0 0 0 0 1 3 3 1 0 0 0 2 6 9 7 4 1 0
7 6 5 6 6 5 3 2 1 1 1 1 1 1 0 0 0 1 1 1 0 1 1 1 0 0 0 0 0 1 3 3 1 0 0 1 2 5 9 9 5 2 1
3 2 2 2 2 1 1 1 0 0 1 1 1 1 0 0 0 2 2 2 1 1 2 2 1 1 0 0 1 2 3 3 2 1 1 4 5 7 9 9 8 5 2
7 5 3 3 3 3 3 2 2 2 2 2 1 0 0 0 0 1 1 1 0 1 1 2 2 1 0 0 1 1 2 2 1 1 3 7 11 12 11 10 9 7 5
24 19 13 12 13 12 9 7 5 4 3 1 1 1 1 1 0 0 0 0 0 0 0 1 1 1 0 0 0 0 0 0 0 0 2 7 12 14 12 10 9 8 7
41 38 31 28 28 25 19 13 9 6 4 2 1 2 2 1 0 0 0 0 0 0 0 0 0 0 0 0 0 0 0 0 0 0 1 5 9 10 9 8 8 8 7
52 51 46 41 37 32 25 18 12 7 4 3 2 2 3 1 0 0 0 0 0 0 0 0 0 0 0 0 0 0 0 0 0 0 0 2 5 5 5 6 8 8 7
56 53 48 42 36 29 23 17 11 6 3 2 2 2 2 1 0 0 1 1 0 0 0 0 0 0 0 0 0 0 0 0 0 0 0 1 2 2 2 4 7 8 8
53 48 42 36 28 20 15 12 8 5 3 1 1 2 1 0 0 0 1 1 0 0 0 0 0 0 0 0 0 0 0 0 0 0 0 1 0 0 0 1 4 7 8
42 38 33 27 19 14 10 8 7 5 3 1 1 1 0 0 0 0 1 1 0 0 0 0 0 0 0 0 0 0 0 0 0 0 0 0 0 0 0 0 2 4 5
28 27 26 22 16 11 7 5 4 3 2 1 0 0 0 0 0 0 0 0 0 0 0 0 0 0 0 0 0 0 0 0 0 0 0 0 0 0 0 0 0 1 2
22 22 22 19 14 10 6 3 2 1 1 0 0 0 0 0 0 0 0 0 0 0 0 0 0 0 0 0 0 0 0 0 0 0 0 0 0 0 0 0 0 0 1
20 20 19 16 10 6 3 1 1 0 0 0 0 0 0 0 0 0 0 0 0 0 0 0 0 0 0 0 0 0 0 0 0 0 0 0 0 0 0 0 0 0 0
16 16 16 12 7 2 1 0 0 0 0 0 0 0 0 0 0 0 0 0 0 0 0 0 0 0 0 0 0 0 0 0 0 0 0 0 0 0 0 0 0 0 0
11 13 13 9 3 0 0 0 0 0 0 0 0 0 0 0 0 0 0 0 0 0 0 0 0 0 0 0 0 0 0 0 0 0 0 0 0 0 0 0 0 0 0
9 10 10 5 1 0 1 1 1 0 0 0 0 0 0 0 0 0 0 0 0 0 0 0 0 0 0 0 0 0 0 0 0 0 0 0 0 0 0 0 0 0 0
9 9 7 3 0 0 1 2 2 1 0 0 0 0 0 0 0 0 0 0 0 0 0 0 0 0 0 0 0 0 0 0 0 0 0 0 0 0 0 0 0 0 0

GEFSSE_con_prob3kmehi_084.txt.gz
EHI
0 1 2 8 26 46 57 57 51 42 37 33 28 19 12 6 2 0 0 0 0 0 0 0 0 0 0 0 0 0 0 0 0 0 0 0 0 0 0 0 0 0 0
3 2 4 12 29 48 55 51 41 33 28 24 20 15 9 5 1 0 0 0 0 0 0 0 0 0 0 0 0 0 0 0 0 0 0 0 0 0 0 0 0 0 0
9 6 7 17 33 48 52 45 34 24 18 14 12 9 5 2 0 0 0 0 0 0 0 0 0 0 0 0 0 0 0 0 0 0 0 0 0 0 0 0 0 0 0
17 11 13 24 35 43 46 43 34 23 15 11 8 5 2 1 0 0 0 0 0 0 0 0 0 0 0 0 0 0 0 0 0 0 0 0 0 0 0 0 0 0 0
22 15 17 30 36 37 41 42 36 25 17 11 6 2 1 0 0 0 0 0 0 0 0 0 0 0 0 0 0 0 0 0 0 0 0 0 0 0 0 0 0 0 0
25 18 20 33 40 40 43 42 34 24 17 10 4 1 0 0 0 0 0 0 0 0 0 0 0 0 0 0 0 0 0 0 0 0 0 0 0 0 0 0 0 0 0
30 23 24 36 45 46 46 40 30 19 12 7 2 0 0 0 0 0 0 0 0 0 0 0 0 0 0 0 0 0 0 0 0 0 0 0 0 0 0 0 0 0 0
35 29 27 34 39 40 38 31 23 13 6 3 1 0 0 0 0 0 0 0 0 0 0 0 0 0 0 0 0 0 0 0 0 0 0 0 0 0 0 0 0 0 0
35 32 27 24 25 26 24 19 15 9 4 1 0 0 0 0 0 0 0 0 0 0 0 0 0 0 0 0 0 0 0 0 0 0 0 0 0 0 0 0 0 0 0
30 28 23 17 14 14 12 11 10 7 4 2 1 0 0 0 0 0 1 1 0 0 0 0 0 0 0 1 2 2 1 0 0 0 0 0 0 0 0 0 0 0 0
20 18 14 11 8 6 5 6 6 5 4 3 1 0 0 0 0 0 1 2 1 1 1 0 0 0 1 3 4 4 2 0 0 0 0 0 0 0 0 0 0 0 0
10 9 7 6 5 3 3 3 4 3 3 2 1 0 0 0 0 0 1 2 2 2 2 0 0 0 0 1 3 3 1 1 0 0 0 0 0 0 0 0 0 0 0
7 8 7 5 4 4 3 3 3 3 2 1 0 0 0 0 0 0 1 2 1 1 1 0 0 0 0 0 0 0 0 0 0 0 0 1 1 1 0 0 0 0 0
7 7 6 5 3 3 2 2 3 3 2 0 0 0 0 0 0 0 1 1 0 0 0 0 0 0 0 1 0 0 0 0 0 0 0 1 2 2 1 0 0 0 0
6 5 4 3 2 1 1 1 3 3 2 0 0 0 0 0 0 0 0 0 0 0 0 0 0 0 0 0 0 0 0 0 0 0 0 1 2 3 2 0 0 0 0
5 3 2 2 1 0 0 1 2 2 1 0 0 0 0 0 0 0 0 0 0 0 0 0 0 0 0 0 0 0 0 0 0 0 0 0 1 2 2 1 0 0 0
5 3 1 1 1 0 0 1 1 1 1 0 0 0 0 0 0 0 0 0 0 0 0 0 0 0 0 0 0 0 0 0 0 0 0 0 0 1 1 1 0 1 1
5 3 1 1 1 1 0 0 0 0 0 0 0 0 0 0 0 0 0 0 0 0 0 0 0 0 0 0 0 0 0 0 0 0 0 0 0 0 0 0 0 1 1
5 3 2 2 2 1 1 1 0 0 1 0 0 0 0 0 0 0 0 0 0 0 0 0 0 0 0 0 0 0 0 0 0 0 0 0 0 0 0 0 0 1 2
4 4 3 3 3 3 2 2 1 0 0 0 0 0 0 0 0 0 0 0 0 0 0 0 0 0 0 0 0 0 0 0 0 0 0 0 0 0 0 0 0 1 1
4 4 4 4 4 3 3 3 2 0 0 0 0 0 0 0 0 0 0 0 0 0 0 0 0 0 0 0 0 0 0 0 0 0 0 0 0 0 0 0 0 0 0
5 4 4 4 3 3 3 2 1 0 0 0 0 0 0 0 0 0 0 0 0 0 0 0 0 0 0 0 0 0 0 0 0 0 0 0 0 0 0 0 0 0 0
5 5 4 4 3 3 3 1 0 0 0 0 0 0 0 0 0 0 0 0 0 0 0 0 0 0 0 0 0 0 0 0 0 0 0 0 0 0 0 0 0 0 0
6 6 5 4 3 3 2 1 0 0 0 0 0 0 0 0 0 0 0 0 0 0 0 0 0 0 0 0 0 0 0 0 0 0 0 0 0 0 0 0 0 0 0
6 6 6 4 3 2 1 0 0 0 0 0 0 0 0 0 0 0 0 0 0 0 0 0 0 0 0 0 0 0 0 0 0 0 0 0 0 0 0 0 0 0 0
6 6 6 4 3 1 0 0 0 0 0 0 0 0 0 0 0 0 0 0 0 0 0 0 0 0 0 0 0 0 0 0 0 0 0 0 0 0 0 0 0 0 0

GEFSSE_con_prob3kmehi_090.txt.gz
EHI
6 7 8 6 5 8 16 28 35 36 34 26 17 11 7 4 3 3 3 3 3 3 3 3 3 3 3 3 3 3 3 3 3 3 3 3 3 3 3 3 3 3 3
9 9 9 7 6 10 18 29 36 38 34 25 16 11 7 4 3 3 3 3 3 3 3 3 3 3 3 3 3 3 3 3 3 3 3 3 3 3 3 3 4 3 3
11 10 8 8 8 11 18 28 35 36 31 23 15 9 5 3 3 3 3 3 3 3 3 3 3 3 3 3 3 3 3 3 3 3 3 3 3 3 3 4 4 4 3
11 9 8 9 10 11 15 22 29 30 26 20 13 7 4 3 3 3 3 3 3 3 3 3 3 3 3 3 3 3 3 3 3 3 3 3 3 3 3 3 4 3 3
10 8 9 10 9 9 10 15 21 22 20 17 11 6 4 3 3 3 3 3 3 3 3 3 3 3 3 3 3 3 3 3 4 3 3 3 3 3 3 3 3 3 3
7 7 9 9 8 8 9 12 15 15 15 13 9 6 4 3 3 3 3 3 3 3 3 3 3 3 3 3 3 3 3 4 4 4 3 3 3 3 3 3 3 3 3
6 7 8 8 6 7 9 12 14 13 11 9 7 4 3 3 3 3 3 3 3 3 3 3 3 3 3 3 3 3 3 3 4 3 3 3 3 3 3 3 3 3 3
6 7 9 7 6 7 9 12 14 13 10 6 4 3 3 3 3 3 3 3 3 3 4 4 4 3 3 3 3 3 3 3 3 3 3 3 3 3 3 3 3 3 3
6 7 8 7 6 6 9 11 14 13 9 6 4 3 3 3 3 3 3 4 4 4 4 5 5 4 3 3 3 3 3 3 3 3 3 3 4 3 3 3 3 3 3
7 7 8 8 8 7 7 8 11 11 8 5 4 3 3 3 3 4 5 6 5 4 4 4 5 4 3 3 3 3 3 3 3 3 4 5 5 4 3 3 3 3 3
10 9 9 10 9 7 5 5 7 8 7 5 3 3 3 3 4 6 8 8 6 5 4 4 4 3 3 3 3 3 3 3 3 3 4 6 6 4 3 3 3 3 3
14 11 9 10 11 10 7 6 6 7 6 4 3 3 4 5 5 7 8 6 4 3 3 4 4 3 3 4 3 3 3 3 3 3 5 7 5 3 3 3 3 3 3
15 11 9 11 12 12 11 9 8 8 7 5 4 4 5 6 7 6 5 5 3 2 2 3 3 2 3 3 2 2 2 3 3 4 6 8 6 4 3 3 3 3 3
14 13 12 13 14 13 13 11 10 9 8 7 6 4 4 6 7 7 6 4 2 2 1 1 1 1 1 1 1 1 1 2 3 4 6 7 7 5 4 3 3 4 4
14 14 14 15 15 15 15 13 11 9 7 6 5 5 5 6 8 7 5 3 1 1 1 0 0 0 0 0 0 0 1 1 1 2 2 3 4 6 5 4 4 4 5
16 15 15 14 14 14 13 13 10 7 6 5 5 6 6 6 6 4 2 1 0 0 0 0 0 0 0 0 0 0 0 0 0 0 0 0 1 4 6 5 4 5 5
20 19 15 11 11 11 10 9 6 4 5 6 7 7 6 5 4 2 1 0 0 0 0 0 0 0 0 0 0 0 0 0 0 0 0 0 0 2 5 6 5 6 6
20 19 14 9 9 10 9 7 5 4 5 8 9 7 5 3 2 2 1 0 0 0 0 0 0 0 0 0 0 0 0 0 0 0 0 0 0 1 3 5 5 5 5
14 14 13 10 10 11 11 9 8 6 7 9 9 7 4 2 2 2 1 0 0 0 0 0 0 0 0 0 0 0 0 0 0 0 0 0 0 0 1 3 4 4 4
10 11 12 12 13 14 13 12 10 8 7 7 7 6 4 3 2 2 1 1 1 0 0 0 0 0 0 0 0 0 0 0 0 0 0 0 0 0 0 2 3 3 3
8 10 12 15 15 15 15 13 11 7 5 5 5 5 4 3 3 3 2 2 2 1 0 0 0 0 0 0 0 0 0 0 0 0 0 0 0 0 0 1 2 2 2
9 10 13 17 17 16 16 13 9 7 6 6 5 4 3 3 3 3 3 3 3 2 1 0 0 0 0 0 0 0 0 0 0 0 0 0 0 0 0 1 1 1 1
10 11 14 18 18 16 15 11 7 7 7 7 6 5 4 3 3 3 3 3 3 2 1 0 0 0 0 0 0 0 0 0 0 0 0 0 0 0 0 0 0 0 0
12 13 18 21 19 15 12 9 7 6 6 6 5 5 4 3 3 3 3 3 3 3 1 1 0 0 0 0 0 0 0 0 0 0 0 0 0 0 0 0 0 0 0
13 16 21 23 20 15 11 9 7 5 5 5 5 5 4 3 3 3 3 3 3 3 3 2 1 0 0 0 0 0 0 0 0 0 0 0 0 0 0 0 0 0 0
14 17 22 23 19 15 12 10 7 5 5 5 5 5 4 3 3 3 3 3 3 3 3 3 2 1 0 0 0 0 0 0 0 0 0 0 0 0 0 0 0 0 0

GEFSSE_con_prob3kmehi_096.txt.gz
EHI
35 33 34 22 6 1 0 1 2 3 1 0 0 0 0 0 0 0 0 0 0 0 0 0 0 0 0 0 0 0 0 0 0 0 0 0 0 0 0 0 0 0 0
48 42 41 30 11 3 1 1 2 2 2 1 0 0 0 0 0 0 0 0 0 0 0 0 0 0 0 0 0 0 0 0 0 0 0 0 0 0 0 0 0 0 0
51 45 43 37 19 8 3 1 1 1 2 2 1 0 0 0 0 0 0 0 0 0 0 0 0 0 0 0 0 0 0 0 0 0 0 0 0 0 0 0 0 0 0
42 37 39 40 27 12 5 2 0 1 3 2 1 0 0 0 0 0 0 0 0 0 0 0 0 0 0 0 0 0 0 0 0 0 0 1 0 0 0 0 0 0 0
38 36 38 39 29 13 5 2 1 2 3 2 1 0 0 0 0 0 0 0 0 0 0 0 0 0 0 0 0 0 0 1 1 1 1 2 1 0 0 0 0 0 0
42 38 37 35 25 11 4 2 3 3 2 1 0 0 0 0 0 0 0 0 0 0 0 0 0 0 0 0 0 0 1 4 4 3 3 4 2 1 0 0 0 0 0
44 38 35 32 23 11 5 3 3 2 1 0 0 0 0 0 0 0 0 0 0 0 0 0 0 0 0 0 0 0 3 6 5 4 7 7 4 2 1 0 0 0 0
46 38 31 28 22 12 6 4 3 1 0 0 0 0 0 0 0 0 0 0 0 0 0 0 0 0 0 0 0 0 2 5 4 4 8 8 5 3 1 0 0 0 0
44 35 24 19 16 11 6 3 2 1 0 0 0 0 0 0 0 0 0 0 0 0 0 0 0 0 0 0 0 0 2 3 2 3 6 5 4 4 2 0 0 0 0
39 29 17 11 10 7 4 2 1 0 0 0 0 0 0 0 0 0 0 0 0 0 0 1 0 0 0 0 0 1 2 2 2 4 6 5 4 4 2 0 0 0 0
41 30 19 14 9 5 3 2 1 0 0 0 0 0 0 0 0 0 0 0 0 0 0 0 0 0 0 0 0 1 1 1 2 5 9 9 8 6 3 1 1 0 0
51 42 34 27 15 7 5 4 2 1 1 1 2 1 1 1 1 2 2 1 0 0 0 0 0 0 0 0 0 1 1 1 2 5 10 13 13 10 5 3 2 1 1
60 53 47 41 27 18 15 9 6 4 4 6 7 4 2 2 5 7 4 1 0 1 1 1 0 1 1 1 1 1 1 2 3 4 7 12 14 10 6 4 3 1 1
63 58 56 52 44 39 32 21 14 12 11 11 13 10 6 7 13 15 10 5 3 3 3 2 2 2 2 2 1 2 3 4 5 4 5 8 12 10 6 4 3 2 2
61 62 66 66 61 57 51 39 31 26 21 20 20 19 15 15 17 19 16 11 6 5 5 4 3 3 3 1 1 1 2 3 4 4 4 6 10 9 5 3 3 3 3
55 63 72 73 68 62 55 48 42 33 27 29 29 26 23 19 16 15 13 10 7 6 6 5 3 2 2 1 0 0 1 1 2 3 3 4 6 6 4 2 3 3 2
52 59 64 64 62 57 49 44 37 28 26 31 32 26 22 17 12 9 7 5 5 4 4 3 2 1 1 0 0 0 0 0 0 1 2 1 2 3 3 3 4 3 2
52 54 54 53 56 55 50 43 34 27 27 29 28 22 16 12 8 5 5 4 2 1 1 1 0 0 0 0 0 0 0 0 0 0 1 1 0 1 2 3 3 3 3
53 53 51 51 55 55 51 44 36 31 28 27 24 17 10 7 4 3 3 3 1 0 0 0 0 0 0 0 0 0 0 0 0 0 0 0 0 0 1 1 2 2 2
52 51 49 51 54 53 46 39 34 29 25 22 19 14 7 3 2 1 2 3 1 0 0 0 0 0 0 0 0 0 0 0 0 0 0 0 0 0 0 0 1 1 1
48 47 45 46 50 49 42 35 29 23 20 17 13 10 5 2 2 2 2 3 1 0 0 0 0 0 0 0 0 0 0 0 0 0 0 0 0 0 0 0 1 1 1
41 40 38 37 40 43 41 36 28 20 14 11 9 7 4 2 2 1 2 2 1 0 0 1 1 0 0 0 0 0 0 0 0 0 0 0 0 0 0 0 1 2 2
29 30 29 29 32 36 37 34 26 17 9 7 9 8 5 3 2 1 1 1 0 0 1 2 2 1 0 0 0 0 0 0 0 0 0 0 0 0 0 0 0 1 1
22 24 27 29 32 34 34 32 24 14 7 8 12 13 10 7 3 1 0 0 0 0 1 2 2 2 1 0 0 0 0 0 0 0 0 0 0 0 0 0 0 0 0
21 24 30 34 37 37 35 32 24 13 8 11 17 21 16 10 6 2 1 1 2 1 0 1 1 2 2 1 0 0 0 0 0 0 0 0 0 0 0 0 0 0 0
19 24 32 36 39 40 37 33 24 13 11 15 22 26 19 11 7 3 2 3 3 1 0 0 1 2 2 1 0 0 0 0 0 0 0 0 0 0 0 0 0 0 0

GEFSSE_con_prob3kmehi_102.txt.gz
EHI
7 15 31 34 24 17 12 7 4 2 2 2 1 0 0 0 0 0 0 0 0 0 0 0 0 0 0 0 0 0 0 0 0 0 0 0 0 0 0 0 0 0 0
17 22 37 44 34 22 13 6 2 1 1 1 0 0 0 0 0 0 0 0 0 0 0 0 0 0 0 0 0 0 0 0 0 0 0 0 0 0 0 0 0 0 0
35 34 44 55 49 31 15 6 1 0 0 0 0 0 0 0 0 0 0 0 0 0 0 0 0 0 0 0 0 0 0 0 0 0 0 0 0 0 0 0 0 0 0
47 42 47 61 60 40 19 7 1 0 0 0 0 0 0 0 0 0 0 0 0 0 0 0 0 0 0 0 0 0 0 0 0 0 0 0 0 0 0 0 0 0 0
52 48 53 64 63 46 24 8 1 0 0 0 0 0 0 0 0 0 0 0 0 0 0 0 0 0 0 0 0 0 0 0 0 0 0 0 0 0 0 0 0 0 0
60 56 59 65 62 47 26 8 1 0 0 0 0 0 0 0 0 0 0 0 0 0 0 0 0 0 0 0 0 0 0 0 0 0 0 0 0 0 0 0 0 0 0
67 62 61 64 59 45 26 8 1 0 0 0 0 0 0 0 0 0 0 0 0 0 0 0 0 0 0 0 0 0 0 0 0 0 0 0 0 0 0 0 0 0 0
69 65 59 56 50 38 24 9 1 0 0 0 0 0 0 0 0 0 0 0 0 0 0 0 0 0 0 0 1 1 1 0 0 0 0 0 0 0 0 0 0 0 0
66 62 53 45 38 30 21 10 2 0 0 0 0 0 0 0 0 0 0 0 0 0 0 0 0 0 0 1 3 4 2 0 0 0 0 0 0 0 0 0 0 0 0
58 55 46 38 32 25 16 8 3 1 0 0 0 0 0 0 0 0 0 0 0 0 0 0 0 0 1 3 5 5 3 1 0 0 0 0 0 0 0 0 0 0 0
53 47 40 35 30 23 15 7 3 1 0 0 0 0 0 0 0 0 0 0 0 0 0 0 0 0 1 4 6 6 3 1 0 0 0 0 1 1 1 0 0 0 0
49 41 34 30 27 23 16 8 3 1 0 0 0 0 0 0 0 0 0 0 0 0 0 0 0 0 1 2 3 3 1 0 0 0 0 0 1 2 2 1 0 0 0
44 37 27 23 23 20 15 9 4 1 0 0 0 0 0 0 0 0 0 0 0 0 0 0 0 0 0 0 0 0 0 0 0 0 0 0 1 2 2 1 0 0 1
42 35 26 19 16 15 14 9 4 1 0 0 0 0 0 0 0 0 0 0 0 0 0 0 0 0 0 0 0 0 0 0 0 0 0 0 1 2 2 1 0 0 1
39 33 26 19 14 13 13 9 3 0 0 0 0 0 0 0 0 0 0 0 0 0 0 0 0 0 0 0 0 0 0 0 0 0 0 0 1 2 2 1 0 0 1
38 32 24 19 16 14 11 7 4 1 0 0 0 0 0 0 0 0 0 0 0 0 0 0 0 0 0 0 0 0 0 0 0 0 0 0 0 1 1 0 0 0 0
38 33 25 20 17 14 9 6 5 3 1 1 1 0 0 0 0 0 0 0 0 0 0 0 0 0 0 0 0 0 0 0 0 0 0 0 0 1 2 1 1 0 0
35 32 27 22 18 15 11 8 7 5 3 4 3 1 0 0 0 0 0 0 0 0 0 0 0 0 0 0 0 0 0 0 0 0 0 0 0 1 2 2 1 0 0
25 25 25 24 22 19 14 10 8 6 6 7 5 3 1 0 0 0 0 0 0 0 0 0 0 0 0 0 0 0 0 0 0 0 0 0 0 0 1 1 1 0 0
18 19 22 24 24 21 16 11 8 7 7 7 5 2 1 0 0 0 0 0 0 0 0 0 0 0 0 0 0 0 0 0 0 0 0 0 0 0 0 0 0 0 0
17 19 22 23 21 19 16 10 7 6 5 4 2 1 0 0 0 0 0 0 0 0 0 0 0 0 0 0 0 0 0 0 0 0 0 0 0 0 0 0 0 0 0
19 19 20 19 16 13 11 8 4 3 2 1 0 0 0 0 0 0 0 0 0 0 0 0 0 0 0 0 0 0 0 0 0 0 0 0 0 0 0 0 0 0 0
18 18 17 14 11 10 9 7 4 2 1 0 0 0 0 0 0 0 0 0 0 0 0 0 0 0 0 0 0 0 0 0 0 0 0 0 0 0 0 0 0 0 0
16 16 15 13 10 10 10 11 8 4 1 1 0 0 0 0 0 0 0 0 0 0 0 0 0 0 0 0 0 0 0 0 0 0 0 0 0 0 0 0 0 0 0
15 16 15 13 11 11 11 12 9 4 1 1 1 0 0 0 0 0 0 0 0 0 0 0 0 0 0 0 0 0 0 0 0 0 0 0 0 0 0 0 0 0 0
15 16 15 12 10 11 12 11 7 2 1 2 1 0 0 0 0 0 0 0 0 0 0 0 0 0 0 0 0 0 0 0 0 0 0 0 0 0 0 0 0 0 0

GEFSSE_con_prob3kmehi_108.txt.gz
EHI
8 8 13 20 28 35 42 46 47 45 44 40 29 15 7 4 2 1 0 0 0 0 0 0 0 0 0 0 0 0 0 0 0 0 0 0 0 0 0 0 0 0 0
18 15 17 25 31 38 43 45 45 42 37 30 20 10 5 3 1 0 0 0 0 0 0 0 0 0 0 0 0 0 0 0 0 0 0 0 0 0 0 0 0 0 0
34 24 22 30 36 41 44 42 39 33 24 15 9 5 2 1 0 0 0 0 0 0 0 0 0 0 0 0 0 0 0 0 0 0 0 0 0 0 0 0 0 0 0
44 31 26 34 40 43 42 36 29 22 13 6 3 2 1 0 0 0 0 0 0 0 0 0 0 0 0 0 0 0 0 0 0 0 0 0 0 0 0 0 0 0 0
46 35 32 41 46 44 39 30 21 13 7 3 1 1 0 0 0 0 0 0 0 0 0 0 0 0 0 0 0 0 0 0 0 0 0 0 0 0 0 0 0 0 0
43 37 39 51 55 48 37 26 17 10 6 3 1 0 0 0 0 0 0 0 0 0 0 0 0 0 0 0 0 0 0 0 0 0 0 0 0 0 0 0 0 0 0
47 44 48 58 60 49 36 25 16 11 7 4 1 0 0 0 0 0 0 0 0 0 0 0 0 0 0 0 0 0 0 0 0 0 0 0 0 0 0 0 0 0 0
60 58 58 59 56 45 33 25 19 12 7 4 1 0 0 0 0 0 0 0 0 0 0 0 0 0 0 0 0 0 0 0 0 0 0 0 0 0 0 0 0 0 0
73 72 66 58 50 41 30 23 18 12 5 2 0 0 0 0 0 0 0 0 0 0 0 0 0 0 0 0 0 0 0 0 0 0 0 0 0 0 0 0 0 0 0
73 71 67 58 49 39 29 21 15 9 3 1 0 0 0 0 0 0 0 0 0 0 0 0 0 0 0 0 0 0 0 0 0 0 0 0 0 0 0 0 0 0 0
65 63 60 57 51 42 31 21 13 7 2 0 0 0 0 0 0 0 0 0 0 0 0 0 0 0 0 0 0 0 0 0 0 0 0 0 0 0 0 0 0 0 0
61 56 50 50 49 43 34 25 17 9 3 0 0 0 0 0 0 0 0 0 0 0 0 0 0 0 0 0 0 0 0 0 0 0 0 0 0 0 0 0 0 0 0
57 49 41 41 42 40 36 29 20 12 5 1 0 0 0 0 0 0 0 0 0 0 0 0 0 0 0 0 0 0 0 0 0 0 0 0 0 0 0 0 0 0 0
50 44 37 34 35 34 34 29 20 12 6 1 0 0 0 0 0 0 0 0 0 0 0 0 0 0 0 0 0 0 0 0 0 0 0 0 0 0 0 0 0 0 0
42 39 35 30 28 28 29 26 18 10 5 1 0 0 0 0 0 0 0 0 0 0 0 0 0 0 0 0 0 0 0 0 0 0 0 0 0 0 0 0 0 0 0
30 31 29 26 25 24 23 19 13 7 4 1 0 0 0 0 0 0 0 0 0 0 0 0 0 0 0 0 0 0 0 0 0 0 0 0 0 0 0 0 0 0 0
21 21 21 21 21 20 18 13 8 4 2 1 0 0 0 0 0 0 0 0 0 0 0 0 0 0 0 0 0 0 0 0 0 0 0 0 0 0 0 0 0 0 0
16 16 15 16 17 17 15 10 5 3 1 0 0 0 0 0 0 0 0 0 0 0 0 0 0 0 0 0 0 0 0 0 0 0 0 0 0 0 0 0 0 0 0
13 11 11 12 14 14 12 8 4 2 1 0 0 0 0 0 0 0 0 0 0 0 0 0 0 0 0 0 0 0 0 0 0 0 0 0 0 0 0 0 0 0 0
9 8 7 9 11 11 9 6 3 2 1 0 0 0 0 0 0 0 0 0 0 0 0 0 0 0 0 0 0 0 0 0 0 0 0 0 0 0 0 0 0 0 0
10 8 6 7 8 8 6 4 3 3 2 1 0 0 0 0 0 0 0 0 0 0 0 0 0 0 0 0 0 0 0 0 0 0 0 0 0 0 0 0 0 0 0
12 10 8 8 9 8 6 5 3 3 2 1 0 0 0 0 0 0 0 0 0 0 0 0 0 0 0 0 0 0 0 0 0 0 0 0 0 0 0 0 0 0 0
12 10 9 9 9 8 7 5 3 2 1 1 1 0 0 0 0 0 0 0 0 0 0 0 0 0 0 0 0 0 0 0 0 0 0 0 0 0 0 0 0 0 0
10 8 7 7 7 8 7 5 3 3 2 2 2 1 0 0 0 0 0 0 0 0 0 0 0 0 0 0 0 0 0 0 0 0 0 0 0 0 0 0 0 0 0
7 6 5 6 6 7 7 5 3 3 3 3 3 1 0 0 0 0 0 0 0 0 0 0 0 0 0 0 0 0 0 0 0 0 0 0 0 0 0 0 0 0 0
6 5 5 5 5 7 8 6 4 3 3 3 3 2 1 0 0 0 0 0 0 0 0 0 0 0 0 0 0 0 0 0 0 0 0 0 0 0 0 0 0 0 0

GEFSSE_con_prob3kmehi_114.txt.gz
EHI
16 16 10 3 4 13 27 39 43 38 32 24 13 5 1 0 0 0 0 0 0 0 0 0 0 0 0 0 0 0 0 0 0 0 0 0 0 0 0 0 0 0 0
24 21 12 4 6 16 30 40 43 40 33 24 14 6 2 1 0 0 0 0 0 0 0 0 0 0 0 0 0 0 0 0 0 0 0 0 0 0 0 0 0 0 0
31 26 15 6 8 18 30 37 41 39 31 22 13 7 3 1 0 0 0 0 0 0 0 0 0 0 0 0 0 0 0 0 0 0 0 0 0 0 0 0 0 0 0
34 30 21 13 12 18 26 32 35 33 26 18 11 6 2 0 0 0 0 0 0 0 0 0 0 0 0 0 0 0 0 0 0 0 0 0 0 0 0 0 0 0 0
35 36 33 24 18 19 22 25 27 25 19 13 7 3 1 0 0 0 0 0 0 0 0 0 0 0 0 0 0 0 0 0 0 0 0 0 0 0 0 0 0 0 0
35 38 40 32 23 21 20 20 19 17 14 9 4 1 0 0 0 0 0 0 0 0 0 0 0 0 0 0 0 0 0 0 0 0 0 0 0 0 0 0 0 0 0
31 36 41 36 27 22 19 18 16 13 9 6 2 0 0 0 0 0 0 0 0 0 0 0 0 0 0 0 0 0 0 0 0 0 0 0 0 0 0 0 0 0 0
27 34 39 33 25 21 18 16 14 12 8 5 3 1 1 1 1 0 0 0 0 0 0 0 0 0 0 0 0 0 0 0 0 0 0 0 0 0 0 0 0 0 0
22 31 35 26 17 15 12 12 12 13 10 6 4 2 2 2 1 0 0 0 0 0 0 0 0 0 0 0 0 0 0 0 0 0 0 0 0 0 0 0 0 0 0
21 27 28 20 11 8 6 7 11 12 10 6 3 2 2 2 1 0 0 0 0 0 0 0 0 0 0 0 0 0 0 0 0 0 0 0 0 0 0 0 0 0 0
30 28 24 19 12 6 3 4 7 9 7 3 1 0 1 1 0 0 0 0 0 0 0 0 0 0 0 0 0 0 0 0 0 0 0 0 0 0 0 1 0 0 0
45 34 25 23 19 12 8 7 6 4 3 1 0 0 0 0 0 0 0 1 0 0 0 0 0 0 0 0 0 0 0 0 0 0 0 0 0 0 0 0 0 0 0
55 43 33 30 26 20 18 15 9 4 1 0 0 0 0 0 0 0 0 0 0 0 0 0 0 0 0 0 0 0 0 0 0 0 0 0 0 0 0 0 0 0 0
59 52 43 37 33 30 28 23 15 8 3 1 0 0 1 1 1 0 0 0 0 0 0 0 0 0 0 0 0 0 0 0 0 1 1 1 0 0 0 0 0 0 0
62 56 48 41 37 37 34 28 21 13 7 3 0 0 1 2 2 1 0 0 0 0 0 0 0 0 0 0 0 0 0 0 0 1 2 1 0 0 0 0 0 0 0
60 55 46 38 34 34 32 29 23 17 10 4 1 1 1 1 1 1 0 1 1 1 0 0 0 0 0 0 0 0 0 0 0 1 1 1 0 0 0 0 0 0 1
53 51 44 33 27 25 24 22 20 16 9 5 4 3 1 1 1 1 1 1 1 1 0 0 0 0 0 0 1 1 0 0 0 0 1 1 1 0 0 0 0 0 1
46 46 40 28 20 19 17 16 16 13 9 7 6 3 1 0 0 1 1 1 1 0 0 0 0 0 0 0 1 1 0 0 0 0 1 1 1 0 0 0 0 0 1
35 36 33 25 18 17 16 16 15 13 10 8 5 2 1 0 0 1 1 0 0 0 0 0 0 0 0 0 1 1 0 0 0 0 0 0 0 0 0 0 1 1 0
26 26 25 22 19 18 17 16 16 13 11 8 5 2 1 1 1 0 0 0 0 0 0 0 0 0 0 0 0 0 0 0 0 0 0 0 0 0 0 0 1 1 1
21 19 18 17 18 18 18 17 15 13 9 7 4 3 2 1 1 0 0 0 0 0 0 0 0 0 0 0 0 0 0 0 0 0 0 0 0 0 0 0 1 1 0
21 17 12 11 14 16 18 19 17 12 8 6 5 4 2 1 0 0 0 0 0 0 0 0 0 0 0 0 0 0 0 0 0 0 0 0 0 0 0 0 0 0 0
21 17 12 10 12 14 16 18 17 13 10 7 6 6 3 1 0 0 0 0 0 0 0 0 0 0 0 0 0 0 0 0 0 0 0 0 0 0 0 0 0 0 0
19 16 14 13 12 13 13 12 13 12 11 9 8 7 4 2 2 1 0 0 0 0 0 0 0 0 0 0 0 0 0 0 0 0 0 0 0 0 0 0 0 0 0
13 12 12 13 13 12 10 8 8 9 9 9 8 6 4 3 2 2 1 0 0 0 0 0 0 0 0 0 0 0 0 0 0 0 0 0 0 0 0 0 0 0 0
10 9 9 12 13 12 9 8 7 6 7 9 9 6 5 3 2 2 2 1 0 0 0 0 0 0 0 0 0 0 0 0 0 0 0 0 0 0 0 0 0 0 0

GEFSSE_con_prob3kmehi_120.txt.gz
EHI
52 49 49 37 14 3 1 1 1 0 0 0 0 0 0 0 0 0 0 0 0 0 0 0 0 0 0 0 0 0 1 2 2 1 1 2 2 2 2 1 0 0 0
60 55 52 39 18 5 2 3 2 1 0 0 0 0 0 0 0 0 0 0 0 0 0 0 0 0 0 0 0 0 0 1 1 0 0 1 1 1 1 1 0 0 0
64 56 50 41 23 8 3 3 3 1 0 0 0 0 0 0 0 0 0 0 0 0 0 0 0 0 0 0 0 0 0 0 0 0 0 0 0 0 0 0 0 0 0
62 54 48 42 29 14 5 4 4 2 0 0 0 0 0 0 1 1 1 0 0 0 0 0 0 0 0 0 0 0 0 0 1 1 0 0 0 0 0 0 0 0 0
62 56 50 44 32 20 11 7 5 3 1 0 0 0 0 1 2 2 1 0 0 0 0 0 0 0 0 0 0 0 0 1 2 1 0 0 0 0 0 0 0 0 0
66 59 52 45 35 24 16 10 7 3 1 1 2 1 1 1 2 2 1 0 0 0 0 0 0 0 0 0 0 0 0 1 2 1 0 0 0 0 0 0 0 0 0
70 61 54 50 38 25 15 10 7 3 1 2 3 3 2 2 2 1 0 0 0 0 0 0 0 0 0 0 0 0 1 2 2 1 0 0 0 0 0 0 1 0 0
75 65 58 52 38 22 12 8 5 2 1 2 5 6 4 1 1 0 0 0 0 0 0 0 0 0 0 0 0 0 2 4 2 0 0 0 0 0 0 0 0 0 0
78 69 58 47 34 19 9 5 3 1 1 3 7 7 4 1 0 0 1 1 1 0 0 0 0 0 0 0 0 1 4 5 2 0 0 1 2 2 1 0 0 0 0
78 68 53 41 31 18 8 3 2 1 1 3 6 5 2 1 0 1 2 2 1 0 0 0 0 0 0 0 0 1 4 4 2 1 1 2 4 4 2 1 1 1 0
76 65 49 40 30 18 9 3 2 1 0 1 2 2 1 0 0 1 3 3 1 0 0 0 0 0 0 0 0 0 1 2 2 3 3 5 7 5 2 2 2 1 1
76 66 53 44 32 21 14 8 3 1 0 0 1 0 0 0 0 1 3 2 1 0 0 0 0 0 0 0 0 0 0 0 2 3 5 8 10 6 2 1 1 1 0
76 69 61 53 40 32 28 16 5 3 1 1 2 2 1 1 1 1 1 1 0 0 0 0 0 0 1 1 0 0 0 1 2 3 5 8 8 3 1 0 0 0 0
76 71 66 60 52 49 41 21 8 6 5 6 7 5 5 4 4 5 3 2 1 1 1 1 2 2 2 1 1 0 0 2 3 3 3 5 5 3 1 1 0 0 0
78 75 70 65 63 62 51 28 16 17 19 19 14 10 10 10 11 12 9 7 5 4 5 6 5 4 2 1 1 1 1 2 3 2 2 2 4 5 3 2 1 0 0
76 75 72 68 66 65 53 36 29 31 34 31 24 19 18 18 19 18 14 11 9 8 9 8 6 4 2 2 2 2 2 4 3 2 1 1 3 5 3 2 1 0 0
71 70 68 64 61 58 49 41 37 35 36 36 33 30 26 25 24 20 16 11 9 8 8 6 3 2 3 3 2 2 3 4 4 3 2 1 1 2 2 1 0 0 0
66 64 60 56 55 52 48 46 41 36 36 37 38 36 31 28 25 20 16 12 8 6 5 3 2 2 2 2 2 2 2 2 2 2 2 2 1 0 1 1 0 0 0
61 60 56 53 51 51 50 48 45 42 40 40 40 39 34 27 21 18 16 12 7 6 4 4 4 3 1 1 1 1 1 1 1 1 1 1 1 1 1 0 0 0 0
57 57 54 49 47 47 47 46 44 42 42 41 39 37 32 24 18 16 15 11 8 7 6 5 4 2 0 0 0 0 0 0 0 0 0 1 1 2 1 0 0 0 0
53 53 50 44 40 41 44 44 41 38 37 35 33 32 29 23 16 14 14 12 10 8 6 3 1 0 0 0 0 0 0 0 0 0 0 0 1 1 1 0 0 0 0
50 48 46 42 37 36 40 41 38 36 34 28 26 28 27 21 14 13 15 13 10 9 4 1 0 0 0 0 0 0 0 0 0 0 0 0 1 1 1 0 0 0 0
48 45 42 41 39 36 36 36 35 33 28 22 22 25 24 18 11 11 15 13 9 6 2 0 0 0 0 0 0 0 0 0 0 0 0 0 1 1 0 0 0 0 0
44 41 40 41 41 38 35 34 32 27 22 17 19 23 22 17 11 11 15 15 9 4 1 1 0 0 0 0 0 0 0 0 0 0 0 0 1 1 0 0 0 0 0
35 35 38 40 42 39 35 34 31 24 18 16 19 23 22 18 13 12 16 15 10 4 2 1 1 0 0 0 0 0 0 0 0 0 0 0 0 0 0 1 1 1 0
30 31 34 39 41 38 35 34 31 24 18 17 21 22 20 19 14 13 16 15 9 4 2 1 1 0 1 1 1 0 0 0 0 0 0 0 0 0 0 1 2 1 0

GEFSSE_con_prob3kmehi_126.txt.gz
EHI
8 14 29 37 31 25 20 13 9 8 7 5 3 4 4 3 2 2 1 0 0 0 0 0 0 0 0 0 0 0 0 0 0 0 0 0 0 0 0 0 0 0 0
24 24 34 42 36 28 22 13 7 6 6 4 2 2 1 1 1 1 0 0 0 0 0 0 0 0 0 0 0 0 0 0 0 0 0 0 0 0 0 0 0 0 0
48 36 37 47 44 35 27 16 6 3 3 2 1 0 0 0 0 0 0 0 0 0 0 0 0 0 0 0 0 0 0 0 0 0 0 0 0 0 0 0 0 0 0
64 48 43 52 51 41 31 18 7 2 1 1 0 0 0 0 0 0 0 0 0 0 0 0 0 0 0 0 0 0 0 0 0 0 0 0 0 0 0 0 0 0 0
68 57 54 62 59 45 31 18 8 2 0 0 0 0 0 0 0 0 0 0 0 0 0 0 0 0 0 0 0 0 0 0 0 0 0 0 0 0 0 0 0 0 0
68 62 62 69 65 49 31 17 7 2 1 0 0 0 0 0 0 0 0 0 0 0 0 0 0 0 0 0 0 0 0 0 0 0 0 0 0 0 0 0 0 0 0
71 66 66 71 67 52 33 18 8 4 1 1 0 0 0 0 0 0 0 0 0 0 0 0 0 0 0 0 0 0 0 0 0 0 0 0 0 0 0 0 0 0 0
76 71 68 67 62 50 36 23 13 6 3 2 1 0 0 0 0 0 0 0 0 0 0 0 0 0 0 0 0 0 0 0 0 0 0 0 0 0 0 1 0 0 0
76 72 67 61 53 44 34 25 17 8 3 2 1 0 0 0 0 0 0 0 0 0 0 0 0 0 0 0 0 1 1 0 0 0 0 0 0 0 0 0 0 0 0
72 70 65 58 48 37 28 23 16 8 3 1 1 0 0 0 0 0 0 0 0 0 0 0 0 1 0 0 0 1 1 0 0 0 0 0 0 0 0 0 0 0 1
71 69 64 57 48 36 27 21 15 8 3 1 0 0 0 0 0 0 0 0 0 0 0 0 0 0 0 0 0 1 1 0 0 0 0 0 0 1 1 1 1 0 1
74 69 60 52 46 37 28 21 14 8 4 2 0 0 0 0 0 0 0 0 0 0 0 0 0 0 0 0 0 0 0 0 0 0 0 0 1 2 2 2 1 0 1
73 67 55 46 40 33 28 20 11 5 4 2 0 0 0 0 0 0 0 0 0 0 0 0 0 0 0 0 0 0 0 0 0 0 0 1 2 2 2 1 0 0 0
71 63 50 40 34 29 24 17 8 3 3 2 0 0 0 0 0 0 0 0 0 0 0 0 0 0 0 0 0 0 0 0 0 0 0 1 2 1 1 0 0 0 0
67 59 45 36 32 27 21 14 7 3 1 1 1 0 0 0 0 0 0 0 0 0 0 0 0 0 0 0 0 0 0 0 0 0 0 1 1 1 0 0 0 0 0
63 56 43 35 29 23 17 11 6 2 1 1 1 0 0 0 0 0 0 0 0 0 0 0 0 0 0 0 0 0 0 0 0 0 0 0 0 1 0 0 0 0 0
61 55 44 36 27 17 11 6 3 2 1 1 1 0 0 0 0 0 0 0 0 0 0 0 0 0 0 0 0 0 0 0 0 0 0 0 0 0 0 0 0 1 1
60 54 47 38 25 13 6 3 1 1 0 0 0 0 0 0 0 0 0 0 0 0 0 0 0 0 0 0 0 0 0 0 0 0 0 0 0 0 0 0 0 1 2
58 54 47 38 24 12 6 3 2 1 1 0 0 0 0 0 0 0 0 0 0 0 0 0 0 0 0 0 0 0 0 0 0 0 0 0 0 0 0 0 0 1 1
54 51 45 35 23 14 9 6 4 2 1 1 1 1 1 0 0 0 0 0 0 0 0 0 0 0 0 0 0 0 0 0 0 0 0 0 0 0 0 0 0 0 0
47 45 41 32 24 18 13 10 6 3 1 1 1 2 2 1 0 0 0 0 0 0 0 0 0 0 0 0 0 0 0 0 0 0 0 0 0 0 0 0 0 0 0
41 38 35 31 26 20 15 12 8 3 1 0 1 2 3 2 0 0 0 0 0 0 0 0 0 0 0 0 0 0 0 0 0 0 0 0 0 0 0 0 0 0 0
39 36 33 30 27 22 17 12 8 5 3 1 1 2 2 2 1 0 0 0 0 0 0 0 0 0 0 0 0 0 0 0 0 0 0 0 0 0 0 0 0 0 0
40 37 33 30 27 24 19 13 8 5 4 4 3 3 2 2 2 1 0 0 0 0 0 0 0 0 0 0 0 0 0 0 0 0 0 0 0 0 0 0 0 0 0
39 36 32 29 26 23 18 12 7 4 3 3 5 5 2 2 2 2 1 0 0 0 0 0 0 0 0 0 0 0 0 0 0 0 0 0 0 0 0 0 0 0 0
37 34 31 27 24 20 16 11 6 2 1 2 5 6 4 3 2 2 1 1 0 0 0 0 0 0 0 0 0 0 0 0 0 0 0 0 0 0 0 0 0 0 0

GEFSSE_con_prob3kmehi_132.txt.gz
EHI
8 12 21 27 31 35 37 39 42 45 43 38 28 16 5 0 0 0 0 0 0 0 0 0 0 0 0 0 0 0 0 0 0 0 0 0 0 0 0 0 0 0 0
19 18 23 29 33 36 37 38 39 39 37 32 23 12 5 1 0 0 0 0 0 0 0 0 0 0 0 0 0 0 0 0 0 0 0 0 0 0 0 0 0 0 0
31 25 26 33 37 38 39 38 35 32 29 24 16 9 5 1 0 0 0 0 0 0 0 0 0 0 0 0 0 0 0 0 0 0 0 0 0 0 0 0 0 0 0
39 31 31 39 42 41 41 39 33 27 21 16 10 6 4 1 0 0 0 0 0 0 0 0 0 0 0 0 0 0 0 0 0 0 0 0 0 0 0 0 0 0 0
42 36 37 46 49 45 43 39 31 22 17 12 6 3 2 1 0 0 0 0 0 0 0 0 0 0 0 0 0 0 0 0 0 0 0 0 0 0 0 0 0 0 0
46 39 42 53 54 47 45 39 28 18 13 9 4 1 1 0 0 0 0 0 0 0 0 0 0 0 0 0 0 0 0 0 0 0 0 0 0 0 0 0 0 0 0
55 47 49 57 56 49 45 39 27 15 9 6 3 1 0 0 0 0 0 0 0 1 0 0 0 0 0 0 0 0 0 0 0 0 0 0 0 0 0 0 0 0 0
68 61 57 58 55 50 45 38 26 13 6 3 1 0 0 0 0 0 0 0 0 0 0 0 0 0 0 0 0 0 0 0 0 0 0 0 0 0 0 0 0 0 0
77 71 64 58 52 47 42 36 26 13 5 1 0 0 0 0 0 0 1 0 0 0 0 0 0 0 0 0 0 0 0 0 0 0 0 0 0 0 0 0 0 0 0
78 74 69 61 51 41 33 30 24 14 6 1 0 0 0 0 0 0 0 0 0 0 0 0 0 0 0 0 0 0 0 0 0 0 0 0 0 0 0 0 0 0 0
77 74 69 64 53 39 28 22 19 12 5 1 0 0 0 0 0 0 0 0 0 0 0 0 0 0 0 0 0 1 0 0 0 0 0 0 0 0 0 0 0 0 0
78 73 67 60 53 42 31 22 17 10 4 1 1 0 0 0 0 0 0 0 0 0 0 1 0 0 0 0 0 0 0 0 0 0 0 0 0 0 0 0 0 0 0
78 72 64 56 50 43 35 27 20 11 4 1 1 1 0 0 0 0 0 0 0 0 0 0 0 0 0 0 0 0 0 0 0 0 0 0 0 0 0 0 0 0 0
74 70 62 53 47 42 37 31 21 11 6 3 2 1 0 0 0 0 0 0 0 0 0 0 0 0 0 0 0 0 0 0 0 0 0 0 0 0 0 0 0 0 0
65 63 58 50 43 38 35 27 18 10 6 4 2 1 0 0 0 0 0 0 0 0 0 0 0 0 0 0 0 0 0 0 0 0 0 0 0 0 0 0 0 0 0
56 55 53 45 37 31 26 20 13 9 6 3 2 0 0 0 0 0 0 0 0 0 0 0 0 0 0 0 0 0 0 0 0 0 0 0 0 0 0 0 0 0 0
50 50 46 37 28 21 17 13 10 6 4 3 2 0 0 0 0 0 0 0 0 0 0 0 0 0 0 0 0 0 0 0 0 0 0 0 0 0 0 0 0 0 0
48 45 39 29 20 14 10 8 6 4 3 3 2 0 0 0 0 0 0 0 0 0 0 0 0 0 0 0 0 0 0 0 0 0 0 0 0 0 0 0 0 0 0
45 41 34 24 16 10 7 4 4 3 3 2 1 0 0 0 0 0 0 0 0 0 0 0 0 0 0 0 0 0 0 0 0 0 0 0 0 0 0 0 0 0 0
42 37 30 21 14 8 5 3 3 3 2 1 1 0 0 0 0 0 0 0 0 0 0 0 0 0 0 0 0 0 0 0 0 0 0 0 0 0 0 0 0 0 0
38 32 24 18 12 6 3 3 2 1 1 0 0 0 0 0 0 0 0 0 0 0 0 0 0 0 0 0 0 0 0 0 0 0 0 0 0 0 0 0 0 0 0
36 29 21 15 11 6 3 2 1 0 0 0 0 0 0 0 0 0 0 0 0 0 0 0 0 0 0 0 0 0 0 0 0 0 0 0 0 0 0 0 0 0 0
34 29 21 16 12 7 3 2 2 1 0 0 0 0 0 0 0 0 0 0 0 0 0 0 0 0 0 0 0 0 0 0 0 0 0 0 0 0 0 0 0 0 0
32 28 22 18 15 9 5 4 3 2 1 0 0 0 0 0 0 0 0 0 0 0 0 0 0 0 0 0 0 0 0 0 0 0 0 0 0 0 0 0 0 0 0
27 24 21 19 17 11 5 4 3 2 1 0 0 0 0 0 0 0 0 0 0 0 0 0 0 0 0 0 0 0 0 0 0 0 0 0 0 0 0 0 0 0 0
24 21 19 18 16 9 4 3 2 1 0 0 0 0 0 0 0 0 0 0 0 0 0 0 0 0 0 0 0 0 0 0 0 0 0 0 0 0 0 0 0 0 0